Location: Chmeln�
(49.6483°N, 14.9871°E)
Time: 08:02:05
(UTC+00:00)

USA 234 - Pass Details

Date: 18 September 2020
Orbit: 1102 x 1106 km, 123.0° (Epoch: 16 October)

Event Time Altitude Azimuth Distance (km) Brightness Sun altitude
Rises 18:32:18 0° 57° (ENE) 3,928 5.8 -14.5°
Reaches altitude 10° 18:35:00 10° 66° (ENE) 2,967 5.1 -14.9°
Maximum altitude 18:41:02 38° 132° (SE) 1,624 3.7 -15.8°
Drops below altitude 10° 18:47:01 10° 199° (SSW) 2,956 5.5 -16.7°
Sets 18:49:43 0° 207° (SSW) 3,912 6.2 -17.1°
